| time (UTC) | temp F | wind direction | speed MPH | gust MPH | rain 1hr in | rain 24hr in | rain mn in | humidity % | barometer mb |
| 20260504194515 | 72 | 280 | 4.0 | 0.0 | 0.00 | 0.00 | 0.00 | 32 | 1004.9 |
| 20260504193015 | 71 | 251 | 4.0 | 0.0 | 0.00 | 0.00 | 0.00 | 31 | 1004.9 |
| 20260504191609 | 71 | 250 | 4.0 | 0.0 | 0.00 | 0.00 | 0.00 | 33 | 1004.8 |
| 20260504190056 | 71 | 300 | 4.0 | 0.0 | 0.00 | 0.00 | 0.00 | 35 | 1004.9 |
| 20260504184539 | 71 | 267 | 4.0 | 0.0 | 0.00 | 0.00 | 0.00 | 36 | 1005.1 |
| 20260504183037 | 70 | 291 | 4.0 | 0.0 | 0.00 | 0.00 | 0.00 | 30 | 1005.5 |
| 20260504181515 | 70 | 155 | 5.0 | 0.0 | 0.00 | 0.00 | 0.00 | 32 | 1005.4 |
| 20260504180014 | 70 | 232 | 4.0 | 0.0 | 0.00 | 0.00 | 0.00 | 31 | 1005.5 |
| 20260504174557 | 69 | 188 | 4.0 | 0.0 | 0.00 | 0.00 | 0.00 | 32 | 1005.6 |
| 20260504173052 | 69 | 251 | 5.0 | 0.0 | 0.00 | 0.00 | 0.00 | 32 | 1005.9 |
| 20260504171532 | 68 | 276 | 5.0 | 0.0 | 0.00 | 0.00 | 0.00 | 32 | 1005.8 |
| 20260504120107 | 53 | 277 | 2.0 | 0.0 | 0.00 | 0.00 | 0.00 | 54 | 1008.9 |
| 20260504081528 | 39 | 53 | 0.0 | 0.0 | 0.00 | 0.00 | 0.00 | 82 | 1008.9 |
| 20260504044524 | 32 | 53 | 0.0 | 0.0 | 0.00 | 0.00 | 0.00 | 91 | 1008.9 |
| 20260504043020 | 31 | 53 | 0.0 | 0.0 | 0.00 | 0.00 | 0.00 | 90 | 1009.0 |
| 20260504041559 | 31 | 53 | 0.0 | 0.0 | 0.00 | 0.00 | 0.00 | 89 | 1008.8 |
| 20260504040054 | 32 | 53 | 0.0 | 0.0 | 0.00 | 0.00 | 0.00 | 89 | 1008.7 |
| 20260504034539 | 32 | 53 | 0.0 | 0.0 | 0.00 | 0.00 | 0.00 | 88 | 1008.6 |
| 20260504033029 | 33 | 53 | 0.0 | 0.0 | 0.00 | 0.00 | 0.00 | 87 | 1008.6 |
| 20260504031511 | 33 | 53 | 0.0 | 0.0 | 0.00 | 0.00 | 0.00 | 86 | 1008.5 |
| 20260504030003 | 34 | 53 | 0.0 | 0.0 | 0.00 | 0.00 | 0.00 | 85 | 1008.4 |
| 20260504024559 | 34 | 53 | 0.0 | 0.0 | 0.00 | 0.00 | 0.00 | 84 | 1008.3 |
| 20260504023041 | 35 | 53 | 0.0 | 0.0 | 0.00 | 0.00 | 0.00 | 84 | 1008.3 |
| 20260504021541 | 35 | 53 | 0.0 | 0.0 | 0.00 | 0.00 | 0.00 | 83 | 1008.2 |
| 20260504020011 | 36 | 53 | 0.0 | 0.0 | 0.00 | 0.00 | 0.00 | 83 | 1008.3 |
| 20260504014508 | 36 | 53 | 0.0 | 0.0 | 0.00 | 0.00 | 0.00 | 81 | 1008.1 |
| 20260504013054 | 37 | 53 | 0.0 | 0.0 | 0.00 | 0.00 | 0.00 | 79 | 1008.1 |
| 20260504011545 | 38 | 53 | 0.0 | 0.0 | 0.00 | 0.00 | 0.00 | 76 | 1007.9 |
| 20260504010051 | 39 | 53 | 0.0 | 0.0 | 0.00 | 0.00 | 0.00 | 75 | 1007.7 |
| 20260504004543 | 40 | 53 | 0.0 | 0.0 | 0.00 | 0.00 | 0.00 | 73 | 1007.4 |
| 20260504003031 | 41 | 53 | 0.0 | 0.0 | 0.00 | 0.00 | 0.00 | 71 | 1007.3 |
| 20260504001534 | 43 | 53 | 0.0 | 0.0 | 0.00 | 0.00 | 0.00 | 68 | 1007.1 |
| 20260504000023 | 45 | 53 | 0.0 | 0.0 | 0.00 | 0.00 | 0.00 | 63 | 1007.0 |
| 20260503234520 | 48 | 53 | 0.0 | 0.0 | 0.00 | 0.00 | 0.00 | 58 | 1006.9 |
| 20260503233014 | 49 | 53 | 0.0 | 0.0 | 0.00 | 0.00 | 0.00 | 48 | 1006.7 |
| 20260503230008 | 50 | 253 | 2.0 | 0.0 | 0.00 | 0.00 | 0.00 | 44 | 1006.4 |
| 20260503224504 | 50 | 3 | 1.0 | 0.0 | 0.00 | 0.00 | 0.00 | 44 | 1006.3 |
| 20260503223113 | 51 | 350 | 3.0 | 0.0 | 0.00 | 0.00 | 0.00 | 44 | 1006.2 |
| 20260503220059 | 51 | 28 | 2.0 | 0.0 | 0.00 | 0.00 | 0.00 | 42 | 1005.9 |
| 20260503214558 | 52 | 336 | 3.0 | 0.0 | 0.00 | 0.00 | 0.00 | 40 | 1005.7 |
| 20260503213051 | 52 | 334 | 2.0 | 0.0 | 0.00 | 0.00 | 0.00 | 44 | 1005.6 |
| 20260503210055 | 52 | 251 | 3.0 | 0.0 | 0.00 | 0.00 | 0.00 | 40 | 1005.2 |
| 20260503204551 | 52 | 292 | 3.0 | 0.0 | 0.00 | 0.00 | 0.00 | 42 | 1005.1 |
| 20260503203029 | 51 | 43 | 2.0 | 0.0 | 0.00 | 0.00 | 0.00 | 42 | 1004.9 |
| 20260503201524 | 52 | 297 | 2.0 | 0.0 | 0.00 | 0.00 | 0.00 | 44 | 1004.7 |
| 20260503200003 | 53 | 297 | 2.0 | 0.0 | 0.00 | 0.00 | 0.00 | 43 | 1004.6 |